This is the latest recevied weather packets stored in our database for station/object N4CRH-13. If no packets are shown the sender has not sent any weather packets the latest 10 day(s).
| Time | Temp. | Humidity | Pressure | Rain* | Wind** | Luminosity | Snow |
|---|---|---|---|---|---|---|---|
| 1777995782 | 0.56° C | 99% | 1291.5 hPa | 0 mm | - | 57 W/m² | - |
| 1777995479 | 0° C | 99% | 1291.5 hPa | 0 mm | - | 61 W/m² | - |
| 1777995176 | 0.56° C | 99% | 1291.7 hPa | 0 mm | - | 64 W/m² | - |
| 1777994873 | 0.56° C | 99% | 1291.8 hPa | 0 mm | - | 61 W/m² | - |
| 1777994570 | 0.56° C | 99% | 1291.7 hPa | 0 mm | - | 57 W/m² | - |
| 1777994264 | 0.56° C | 99% | 1291.7 hPa | 0 mm | - | 47 W/m² | - |
| 1777993962 | 0.56° C | 99% | 1291.7 hPa | 0 mm | - | 45 W/m² | - |
| 1777993659 | 0.56° C | 99% | 1291.8 hPa | 0 mm | - | 47 W/m² | - |
| 1777993357 | 0.56° C | 99% | 1291.8 hPa | 0 mm | - | 41 W/m² | - |
| 1777993055 | 0.56° C | 99% | 1291.5 hPa | 0 mm | - | 39 W/m² | - |
| 1777992754 | 0.56° C | 99% | 1291.5 hPa | 0 mm | - | 32 W/m² | - |
| 1777992451 | 0.56° C | 99% | 1291.7 hPa | 0 mm | - | 28 W/m² | - |
| 1777992150 | 0.56° C | 99% | 1291.8 hPa | 0 mm | - | 24 W/m² | - |
| 1777991846 | 0.56° C | 99% | 1291.9 hPa | 0 mm | - | 24 W/m² | - |
| 1777991544 | 0.56° C | 99% | 1291.7 hPa | 0 mm | - | 17 W/m² | - |
| 1777991240 | 0.56° C | 99% | 1291.8 hPa | 0 mm | - | 25 W/m² | - |
| 1777990938 | 0.56° C | 99% | 1292 hPa | 0 mm | - | 27 W/m² | - |
| 1777990635 | 0.56° C | 99% | 1291.8 hPa | 0 mm | - | 22 W/m² | - |
| 1777990332 | 0.56° C | 99% | 1291.7 hPa | 0 mm | - | 20 W/m² | - |
| 1777990028 | 0.56° C | 99% | 1291.9 hPa | 0 mm | - | 22 W/m² | - |
| 1777989725 | 0.56° C | 99% | 1291.9 hPa | 0 mm | - | 21 W/m² | - |
| 1777989422 | 0.56° C | 99% | 1291.9 hPa | 0 mm | - | 18 W/m² | - |
| 1777989118 | 0.56° C | 99% | 1291.9 hPa | 1.27 mm | - | 15 W/m² | - |
| 1777988814 | 0.56° C | 99% | 1291.7 hPa | 0 mm | - | 14 W/m² | - |
| 1777988512 | 0.56° C | 99% | 1291.8 hPa | 0 mm | - | 14 W/m² | - |
* Rain latest hour (hover to see other rain measurements)
** Current wind speed in m/s (hover to see current wind gust speed)